Voltar ao catálogo

STARLINK-35553

AtivoComunicaçõesVLEO
NORAD 66120·PAYLOAD·🇺🇸 United States

Lançado Oct 22, 2025 de Vandenberg Space Force Base

Loading…

Próximas Passagens (próximas 24 horas)

TLE

AtualizadoSource: CelesTrak SupGP

Época: Sep 15, 2026, 04:09 UTC

1 66120C 25237G   26258.17340278 -.00053211  00000+0 -15723-2 0  2580
2 66120  53.1576 236.2557 0001339  83.5286  38.9121 15.34414634    12

Acompanhe STARLINK-35553 em tempo real com AllMySat

Download on the App Store